• In Latvia
  • List of Countries
  • For 7 days
  • Water Temperature
  • Satellite Maps
  • Weather Map
  • Weather Widgets
  • user-avatar
    Login

    Hourly Weather Ali Bayramli

    Today, 23 October, Monday

    Time Temperature Precipitation Wind Pressure Humidity
    00:00 +18°C° 0 mm 3 mps 756 mmHg 51%
    01:00 +17°C° 0 mm 3 mps 756 mmHg 47%
    02:00 +17°C° 0 mm 3 mps 756 mmHg 43%
    03:00 +17°C° 0 mm 4 mps 756 mmHg 39%
    04:00 +15°C° 0 mm 4 mps 756 mmHg 39%
    05:00 +15°C° 0 mm 4 mps 756 mmHg 38%
    06:00 +15°C° 0 mm 4 mps 757 mmHg 38%
    07:00 +17°C° 0 mm 4 mps 757 mmHg 39%
    08:00 +17°C° 0 mm 5 mps 758 mmHg 40%
    09:00 +20°C° 0 mm 5 mps 759 mmHg 42%
    10:00 +21°C° 0 mm 5 mps 759 mmHg 42%
    11:00 +21°C° 0 mm 5 mps 760 mmHg 43%
    12:00 +22°C° 0 mm 5 mps 760 mmHg 44%
    13:00 +22°C° 0 mm 6 mps 761 mmHg 48%
    14:00 +21°C° 0 mm 7 mps 761 mmHg 52%
    15:00 +21°C° 0 mm 8 mps 761 mmHg 55%
    16:00 +20°C° 0 mm 8 mps 762 mmHg 61%
    17:00 +18°C° 0 mm 7 mps 762 mmHg 66%
    18:00 +17°C° 0 mm 7 mps 763 mmHg 71%
    19:00 +16°C° 0 mm 7 mps 763 mmHg 72%
    20:00 +16°C° 0 mm 6 mps 764 mmHg 74%
    21:00 +16°C° 0 mm 6 mps 764 mmHg 75%
    22:00 +16°C° 0 mm 6 mps 764 mmHg 76%
    23:00 +16°C° 0 mm 5 mps 764 mmHg 76%

    Tomorrow, 24 October, Tuesday

    Time Temperature Precipitation Wind Pressure Humidity
    00:00 +15°C° 0 mm 5 mps 764 mmHg 76%
    01:00 +15°C° 0 mm 4 mps 763 mmHg 76%
    02:00 +15°C° 0 mm 4 mps 763 mmHg 76%
    03:00 +17°C° 0 mm 4 mps 763 mmHg 76%
    04:00 +17°C° 0 mm 3 mps 763 mmHg 77%
    05:00 +17°C° 0 mm 3 mps 763 mmHg 77%
    06:00 +17°C° 0 mm 3 mps 763 mmHg 78%
    07:00 +17°C° 0 mm 2 mps 763 mmHg 77%
    08:00 +17°C° 0 mm 2 mps 763 mmHg 76%
    09:00 +18°C° 0 mm 2 mps 763 mmHg 76%
    10:00 +18°C° 0 mm 2 mps 763 mmHg 73%
    11:00 +19°C° 0 mm 2 mps 762 mmHg 71%
    12:00 +19°C° 0 mm 2 mps 762 mmHg 68%
    13:00 +20°C° 0 mm 2 mps 762 mmHg 67%
    14:00 +20°C° 0 mm 2 mps 761 mmHg 65%
    15:00 +20°C° 0 mm 2 mps 761 mmHg 64%
    16:00 +20°C° 0 mm 2 mps 761 mmHg 67%
    17:00 +19°C° 0 mm 2 mps 762 mmHg 70%
    18:00 +19°C° 0 mm 2 mps 762 mmHg 73%
    19:00 +19°C° 0 mm 2 mps 762 mmHg 76%
    20:00 +19°C° 0 mm 1 mps 762 mmHg 78%
    21:00 +19°C° 0 mm 1 mps 763 mmHg 80%
    22:00 +18°C° 0 mm 1 mps 763 mmHg 83%
    23:00 +18°C° 0 mm 1 mps 763 mmHg 85%

    Day after tomorrow, 25 October, Wednesday

    Time Temperature Precipitation Wind Pressure Humidity
    00:00 +18°C° 0 mm 1 mps 763 mmHg 88%
    01:00 +16°C° 0 mm 1 mps 763 mmHg 88%
    02:00 +16°C° 0 mm 1 mps 762 mmHg 89%
    03:00 +16°C° 0 mm 1 mps 762 mmHg 89%
    04:00 +16°C° 0 mm 1 mps 762 mmHg 89%
    05:00 +16°C° 0 mm 1 mps 763 mmHg 89%
    06:00 +15°C° 0 mm 1 mps 763 mmHg 88%
    07:00 +16°C° 0 mm 2 mps 763 mmHg 84%
    08:00 +17°C° 0 mm 2 mps 763 mmHg 80%
    09:00 +18°C° 0 mm 2 mps 763 mmHg 75%
    10:00 +19°C° 0 mm 2 mps 763 mmHg 69%
    11:00 +21°C° 0 mm 2 mps 762 mmHg 64%
    12:00 +23°C° 0 mm 2 mps 762 mmHg 58%
    13:00 +23°C° 0 mm 2 mps 762 mmHg 55%
    14:00 +24°C° 0 mm 2 mps 761 mmHg 53%
    15:00 +24°C° 0 mm 3 mps 761 mmHg 50%
    16:00 +22°C° 0 mm 3 mps 761 mmHg 56%
    17:00 +21°C° 0 mm 3 mps 761 mmHg 62%
    18:00 +20°C° 0 mm 3 mps 761 mmHg 68%
    19:00 +19°C° 0 mm 2 mps 761 mmHg 72%
    20:00 +19°C° 0 mm 2 mps 761 mmHg 77%
    21:00 +18°C° 0 mm 2 mps 761 mmHg 81%
    22:00 +18°C° 0 mm 2 mps 761 mmHg 83%
    23:00 +17°C° 0 mm 2 mps 760 mmHg 85%

    26 October, Thursday

    Time Temperature Precipitation Wind Pressure Humidity
    00:00 +17°C° 0 mm 2 mps 760 mmHg 87%
    01:00 +17°C° 0 mm 2 mps 759 mmHg 86%
    02:00 +17°C° 0 mm 2 mps 759 mmHg 85%
    03:00 +17°C° 0 mm 2 mps 759 mmHg 84%
    04:00 +17°C° 0 mm 3 mps 758 mmHg 81%
    05:00 +17°C° 0 mm 3 mps 758 mmHg 77%
    06:00 +17°C° 0 mm 4 mps 758 mmHg 73%
    07:00 +18°C° 0 mm 4 mps 758 mmHg 61%
    08:00 +20°C° 0 mm 5 mps 757 mmHg 50%
    09:00 +21°C° 0 mm 6 mps 757 mmHg 38%
    10:00 +23°C° 0 mm 6 mps 757 mmHg 33%
    11:00 +26°C° 0 mm 6 mps 757 mmHg 28%
    12:00 +27°C° 0 mm 7 mps 756 mmHg 23%
    13:00 +27°C° 0 mm 6 mps 756 mmHg 23%
    14:00 +28°C° 0 mm 6 mps 756 mmHg 23%
    15:00 +28°C° 0 mm 6 mps 757 mmHg 23%
    16:00 +26°C° 0 mm 6 mps 757 mmHg 32%
    17:00 +23°C° 0 mm 7 mps 758 mmHg 41%
    18:00 +20°C° 0 mm 7 mps 759 mmHg 50%
    19:00 +20°C° 0 mm 7 mps 759 mmHg 53%
    20:00 +18°C° 0 mm 7 mps 760 mmHg 56%
    21:00 +17°C° 0 mm 8 mps 761 mmHg 59%
    22:00 +17°C° 0 mm 7 mps 761 mmHg 61%
    23:00 +16°C° 0 mm 6 mps 761 mmHg 62%

    27 October, Friday

    Time Temperature Precipitation Wind Pressure Humidity
    00:00 +16°C° 0 mm 6 mps 761 mmHg 64%
    01:00 +15°C° 0 mm 5 mps 761 mmHg 66%
    02:00 +15°C° 0 mm 5 mps 762 mmHg 69%
    03:00 +14°C° 0 mm 5 mps 762 mmHg 71%
    04:00 +14°C° 0 mm 4 mps 762 mmHg 73%
    05:00 +14°C° 0 mm 4 mps 762 mmHg 75%
    06:00 +13°C° 0 mm 4 mps 763 mmHg 77%
    07:00 +14°C° 0 mm 4 mps 763 mmHg 74%
    08:00 +15°C° 0 mm 4 mps 763 mmHg 70%
    09:00 +16°C° 0 mm 5 mps 763 mmHg 66%
    10:00 +16°C° 0 mm 5 mps 763 mmHg 64%
    11:00 +17°C° 0 mm 5 mps 763 mmHg 62%
    12:00 +17°C° 0 mm 5 mps 763 mmHg 59%
    13:00 +18°C° 0 mm 4 mps 762 mmHg 60%
    14:00 +18°C° 0 mm 4 mps 762 mmHg 60%
    15:00 +18°C° 0 mm 4 mps 762 mmHg 61%
    16:00 +17°C° 0 mm 4 mps 762 mmHg 64%
    17:00 +17°C° 0 mm 4 mps 762 mmHg 66%
    18:00 +16°C° 0 mm 3 mps 762 mmHg 69%
    19:00 +16°C° 0 mm 3 mps 762 mmHg 71%
    20:00 +14°C° 0 mm 3 mps 762 mmHg 74%
    21:00 +15°C° 0 mm 2 mps 762 mmHg 76%
    22:00 +15°C° 0 mm 2 mps 762 mmHg 78%
    23:00 +15°C° 0 mm 1 mps 761 mmHg 80%

    28 October, Saturday

    Time Temperature Precipitation Wind Pressure Humidity
    00:00 +14°C° 0 mm 1 mps 761 mmHg 83%
    01:00 +14°C° 0 mm 1 mps 761 mmHg 84%
    02:00 +14°C° 0 mm 1 mps 760 mmHg 85%
    03:00 +14°C° 0 mm 1 mps 760 mmHg 86%
    04:00 +14°C° 0 mm 2 mps 760 mmHg 87%
    05:00 +14°C° 0 mm 2 mps 760 mmHg 88%
    06:00 +13°C° 0 mm 2 mps 759 mmHg 89%
    07:00 +13°C° 0 mm 3 mps 759 mmHg 83%
    08:00 +16°C° 0 mm 3 mps 759 mmHg 77%
    09:00 +17°C° 0 mm 4 mps 759 mmHg 71%
    10:00 +18°C° 0 mm 4 mps 758 mmHg 64%
    11:00 +19°C° 0 mm 5 mps 757 mmHg 57%
    12:00 +20°C° 0 mm 5 mps 757 mmHg 50%
    13:00 +21°C° 0 mm 5 mps 756 mmHg 47%
    14:00 +21°C° 0 mm 5 mps 756 mmHg 44%
    15:00 +21°C° 0 mm 5 mps 756 mmHg 41%
    16:00 +21°C° 0 mm 5 mps 756 mmHg 43%
    17:00 +20°C° 0 mm 5 mps 756 mmHg 45%
    18:00 +19°C° 0 mm 5 mps 756 mmHg 47%
    19:00 +19°C° 0 mm 5 mps 756 mmHg 49%
    20:00 +17°C° 0 mm 5 mps 756 mmHg 50%
    21:00 +17°C° 0 mm 6 mps 756 mmHg 51%
    22:00 +17°C° 0 mm 6 mps 755 mmHg 48%
    23:00 +19°C° 0 mm 5 mps 755 mmHg 46%

    29 October, Sunday

    Time Temperature Precipitation Wind Pressure Humidity
    00:00 +19°C° 0 mm 5 mps 755 mmHg 43%
    01:00 +19°C° 0 mm 5 mps 755 mmHg 41%
    02:00 +19°C° 0 mm 5 mps 755 mmHg 40%
    03:00 +19°C° 0 mm 5 mps 755 mmHg 38%
    04:00 +17°C° 0 mm 5 mps 755 mmHg 38%
    05:00 +18°C° 0 mm 4 mps 755 mmHg 39%
    06:00 +18°C° 0 mm 4 mps 755 mmHg 39%
    07:00 +18°C° 0 mm 4 mps 756 mmHg 37%
    08:00 +19°C° 0 mm 4 mps 756 mmHg 36%
    09:00 +20°C° 0 mm 4 mps 757 mmHg 34%
    10:00 +21°C° 0 mm 3 mps 757 mmHg 33%
    11:00 +24°C° 0 mm 3 mps 757 mmHg 31%
    12:00 +25°C° 0 mm 2 mps 757 mmHg 29%
    13:00 +25°C° 0 mm 2 mps 756 mmHg 30%
    14:00 +25°C° 0 mm 2 mps 756 mmHg 31%
    15:00 +25°C° 0 mm 3 mps 756 mmHg 32%
    16:00 +24°C° 0 mm 3 mps 756 mmHg 40%
    17:00 +21°C° 0 mm 3 mps 757 mmHg 48%
    18:00 +20°C° 0 mm 3 mps 757 mmHg 56%
    19:00 +19°C° 0 mm 3 mps 757 mmHg 62%
    20:00 +18°C° 0 mm 2 mps 757 mmHg 67%
    21:00 +18°C° 0 mm 2 mps 757 mmHg 73%
    22:00 +17°C° 0 mm 2 mps 757 mmHg 76%
    23:00 +17°C° 0 mm 2 mps 757 mmHg 79%
    Show more